Time,TemperatureF,DewpointF,PressureIn,WindDirection,WindDirectionDegrees,WindSpeedMPH,WindSpeedGustMPH,Humidity,HourlyPrecipIn,Conditions,Clouds,dailyrainin,SoftwareType,DateUTC
2013-11-11 00:02:00,35.4,30.0,30.15,SW,226,2.0,5.0,81,0.00,,,0.00,weatherlink.com 1.10,2013-11-11 06:02:00,
2013-11-11 00:17:00,35.5,30.0,30.13,SSW,201,2.0,3.0,81,0.00,,,0.00,weatherlink.com 1.10,2013-11-11 06:17:00,
2013-11-11 00:32:00,35.6,30.0,30.15,SSW,209,1.0,5.0,81,0.00,,,0.00,weatherlink.com 1.10,2013-11-11 06:32:00,
2013-11-11 00:47:00,35.4,30.0,30.14,SW,225,1.0,5.0,82,0.00,,,0.00,weatherlink.com 1.10,2013-11-11 06:47:00,
2013-11-11 01:02:00,34.9,30.0,30.13,SSW,196,0.0,3.0,82,0.00,,,0.00,weatherlink.com 1.10,2013-11-11 07:02:00,
2013-11-11 01:17:00,34.6,30.0,30.13,SW,216,1.0,4.0,83,0.00,,,0.00,weatherlink.com 1.10,2013-11-11 07:17:00,
2013-11-11 01:32:00,35.1,30.0,30.14,WSW,250,1.0,4.0,83,0.00,,,0.00,weatherlink.com 1.10,2013-11-11 07:32:00,
2013-11-11 01:47:00,35.7,31.0,30.14,West,268,0.0,5.0,82,0.00,,,0.00,weatherlink.com 1.10,2013-11-11 07:47:00,
2013-11-11 02:02:00,35.9,31.0,30.16,NNW,334,3.0,4.0,81,0.00,,,0.00,weatherlink.com 1.10,2013-11-11 08:02:00,
2013-11-11 02:17:00,36.1,31.0,30.16,West,278,0.0,2.0,82,0.00,,,0.00,weatherlink.com 1.10,2013-11-11 08:17:00,
2013-11-11 02:32:00,37.0,32.0,30.16,WNW,291,1.0,4.0,81,0.00,,,0.00,weatherlink.com 1.10,2013-11-11 08:32:00,
2013-11-11 02:47:00,37.7,32.0,30.15,NNW,339,3.0,5.0,80,0.00,,,0.00,weatherlink.com 1.10,2013-11-11 08:47:00,
2013-11-11 03:03:00,37.3,32.0,30.15,North,357,1.0,7.0,81,0.00,,,0.00,weatherlink.com 1.10,2013-11-11 09:03:00,
2013-11-11 03:17:00,36.3,31.0,30.14,NNW,345,1.0,6.0,82,0.00,,,0.00,weatherlink.com 1.10,2013-11-11 09:17:00,
2013-11-11 03:33:00,35.2,31.0,30.17,NNW,330,3.0,6.0,83,0.00,,,0.00,weatherlink.com 1.10,2013-11-11 09:33:00,
2013-11-11 03:48:00,35.1,31.0,30.16,North,351,4.0,7.0,84,0.00,,,0.00,weatherlink.com 1.10,2013-11-11 09:48:00,
2013-11-11 04:03:00,35.0,31.0,30.17,NNW,331,0.0,7.0,84,0.00,,,0.00,weatherlink.com 1.10,2013-11-11 10:03:00,
2013-11-11 04:18:00,34.9,31.0,30.18,NNW,333,0.0,11.0,85,0.00,,,0.00,weatherlink.com 1.10,2013-11-11 10:18:00,
2013-11-11 04:33:00,34.5,31.0,30.18,North,350,2.0,11.0,85,0.00,,,0.00,weatherlink.com 1.10,2013-11-11 10:33:00,
2013-11-11 04:48:00,34.5,31.0,30.20,North,11,5.0,15.0,86,0.00,,,0.00,weatherlink.com 1.10,2013-11-11 10:48:00,
2013-11-11 05:03:00,34.6,31.0,30.20,NNW,338,8.0,16.0,86,0.00,,,0.00,weatherlink.com 1.10,2013-11-11 11:03:00,
2013-11-11 05:18:00,34.5,31.0,30.20,NNE,12,4.0,16.0,86,0.00,,,0.00,weatherlink.com 1.10,2013-11-11 11:18:00,
2013-11-11 05:33:00,34.4,31.0,30.20,NW,314,2.0,13.0,87,0.00,,,0.00,weatherlink.com 1.10,2013-11-11 11:33:00,
2013-11-11 05:48:00,34.3,31.0,30.20,East,86,6.0,16.0,86,0.00,,,0.00,weatherlink.com 1.10,2013-11-11 11:48:00,
2013-11-11 06:03:00,34.0,31.0,30.20,WNW,285,0.0,16.0,87,0.00,,,0.00,weatherlink.com 1.10,2013-11-11 12:03:00,
2013-11-11 06:18:00,33.3,30.0,30.23,NW,317,3.0,18.0,88,0.00,,,0.00,weatherlink.com 1.10,2013-11-11 12:18:00,
2013-11-11 06:33:00,31.1,28.0,30.24,NW,311,6.0,18.0,87,0.00,,,0.00,weatherlink.com 1.10,2013-11-11 12:33:00,
2013-11-11 06:48:00,30.5,28.0,30.25,North,354,7.0,15.0,89,0.00,,,0.00,weatherlink.com 1.10,2013-11-11 12:48:00,
2013-11-11 07:03:00,29.6,27.0,30.27,North,4,9.0,21.0,88,0.00,,,0.00,weatherlink.com 1.10,2013-11-11 13:03:00,
2013-11-11 07:18:00,28.9,26.0,30.29,North,360,13.0,22.0,87,0.00,,,0.00,weatherlink.com 1.10,2013-11-11 13:18:00,
2013-11-11 07:33:00,27.6,25.0,30.31,NNW,329,5.0,20.0,88,0.00,,,0.00,weatherlink.com 1.10,2013-11-11 13:33:00,
2013-11-11 07:48:00,25.8,23.0,30.32,NNW,332,8.0,20.0,89,0.00,,,0.00,weatherlink.com 1.10,2013-11-11 13:48:00,
2013-11-11 08:03:00,24.5,22.0,30.34,NNW,334,5.0,21.0,91,0.00,,,0.00,weatherlink.com 1.10,2013-11-11 14:03:00,
2013-11-11 08:18:00,23.5,21.0,30.35,North,349,10.0,17.0,91,0.00,,,0.00,weatherlink.com 1.10,2013-11-11 14:18:00,
2013-11-11 08:34:00,23.3,21.0,30.36,NNE,23,4.0,14.0,90,0.00,,,0.00,weatherlink.com 1.10,2013-11-11 14:34:00,
2013-11-11 08:49:00,22.5,21.0,30.37,NNW,335,4.0,16.0,92,0.00,,,0.00,weatherlink.com 1.10,2013-11-11 14:49:00,
2013-11-11 09:04:00,22.4,21.0,30.37,NNW,346,6.0,13.0,92,0.00,,,0.00,weatherlink.com 1.10,2013-11-11 15:04:00,
2013-11-11 09:19:00,21.8,20.0,30.39,NW,310,8.0,16.0,92,0.00,,,0.00,weatherlink.com 1.10,2013-11-11 15:19:00,
2013-11-11 09:34:00,22.0,20.0,30.38,North,8,3.0,10.0,93,0.00,,,0.00,weatherlink.com 1.10,2013-11-11 15:34:00,
2013-11-11 09:49:00,22.2,20.0,30.39,NNW,338,2.0,14.0,92,0.00,,,0.00,weatherlink.com 1.10,2013-11-11 15:49:00,
2013-11-11 10:04:00,23.1,21.0,30.39,NW,320,3.0,8.0,92,0.00,,,0.00,weatherlink.com 1.10,2013-11-11 16:04:00,
2013-11-11 10:19:00,23.5,21.0,30.40,NNW,344,6.0,10.0,90,0.00,,,0.00,weatherlink.com 1.10,2013-11-11 16:19:00,
2013-11-11 10:34:00,23.8,21.0,30.41,NW,318,5.0,9.0,88,0.00,,,0.00,weatherlink.com 1.10,2013-11-11 16:34:00,
2013-11-11 10:49:00,24.2,20.0,30.41,NNW,330,4.0,14.0,84,0.00,,,0.00,weatherlink.com 1.10,2013-11-11 16:49:00,
2013-11-11 11:04:00,24.7,20.0,30.42,North,349,5.0,15.0,82,0.00,,,0.00,weatherlink.com 1.10,2013-11-11 17:04:00,
2013-11-11 11:19:00,25.0,20.0,30.42,NNW,338,7.0,12.0,81,0.00,,,0.00,weatherlink.com 1.10,2013-11-11 17:19:00,
2013-11-11 11:34:00,24.7,19.0,30.43,NW,314,5.0,14.0,80,0.00,,,0.00,weatherlink.com 1.10,2013-11-11 17:34:00,
2013-11-11 11:49:00,24.6,19.0,30.44,NNW,332,5.0,13.0,80,0.00,,,0.00,weatherlink.com 1.10,2013-11-11 17:49:00,
2013-11-11 12:04:00,24.6,19.0,30.44,NNW,340,5.0,11.0,80,0.00,,,0.00,weatherlink.com 1.10,2013-11-11 18:04:00,
2013-11-11 12:19:00,24.1,19.0,30.44,NNW,347,7.0,13.0,79,0.00,,,0.00,weatherlink.com 1.10,2013-11-11 18:19:00,
2013-11-11 12:34:00,23.8,19.0,30.45,NW,314,6.0,13.0,80,0.00,,,0.00,weatherlink.com 1.10,2013-11-11 18:34:00,
2013-11-11 12:49:00,24.2,19.0,30.46,NW,315,8.0,15.0,79,0.00,,,0.00,weatherlink.com 1.10,2013-11-11 18:49:00,
2013-11-11 13:05:00,23.8,19.0,30.46,North,355,8.0,16.0,80,0.00,,,0.00,weatherlink.com 1.10,2013-11-11 19:05:00,
2013-11-11 13:19:00,23.3,18.0,30.46,NNW,347,5.0,15.0,79,0.00,,,0.00,weatherlink.com 1.10,2013-11-11 19:19:00,
2013-11-11 13:34:00,22.9,18.0,30.47,SSW,201,4.0,14.0,80,0.00,,,0.00,weatherlink.com 1.10,2013-11-11 19:34:00,
2013-11-11 13:49:00,22.7,18.0,30.48,WNW,300,7.0,13.0,81,0.00,,,0.00,weatherlink.com 1.10,2013-11-11 19:49:00,
2013-11-11 14:04:00,22.5,17.0,30.48,North,349,6.0,12.0,80,0.00,,,0.00,weatherlink.com 1.10,2013-11-11 20:04:00,
2013-11-11 14:19:00,22.1,17.0,30.49,NNW,330,0.0,16.0,80,0.00,,,0.00,weatherlink.com 1.10,2013-11-11 20:19:00,
2013-11-11 14:34:00,22.3,16.0,30.50,North,358,7.0,13.0,78,0.00,,,0.00,weatherlink.com 1.10,2013-11-11 20:34:00,
2013-11-11 14:49:00,21.9,16.0,30.51,NW,307,5.0,13.0,77,0.00,,,0.00,weatherlink.com 1.10,2013-11-11 20:49:00,
2013-11-11 15:04:00,21.7,15.0,30.51,NNE,32,10.0,15.0,76,0.00,,,0.00,weatherlink.com 1.10,2013-11-11 21:04:00,
2013-11-11 15:20:00,21.3,15.0,30.52,North,1,5.0,11.0,77,0.00,,,0.00,weatherlink.com 1.10,2013-11-11 21:20:00,
2013-11-11 15:35:00,21.5,16.0,30.52,NNW,332,4.0,10.0,78,0.00,,,0.00,weatherlink.com 1.10,2013-11-11 21:35:00,
2013-11-11 15:50:00,21.9,15.0,30.53,NNW,331,5.0,14.0,76,0.00,,,0.00,weatherlink.com 1.10,2013-11-11 21:50:00,
2013-11-11 16:05:00,21.2,15.0,30.54,North,349,6.0,12.0,76,0.00,,,0.00,weatherlink.com 1.10,2013-11-11 22:05:00,
2013-11-11 16:20:00,21.1,15.0,30.55,ENE,60,8.0,16.0,78,0.00,,,0.00,weatherlink.com 1.10,2013-11-11 22:20:00,
2013-11-11 16:35:00,20.3,14.0,30.56,NW,321,4.0,10.0,78,0.00,,,0.00,weatherlink.com 1.10,2013-11-11 22:35:00,
2013-11-11 16:50:00,19.3,14.0,30.57,NNW,330,3.0,14.0,78,0.00,,,0.00,weatherlink.com 1.10,2013-11-11 22:50:00,
2013-11-11 17:05:00,18.5,13.0,30.57,NW,323,3.0,7.0,80,0.00,,,0.00,weatherlink.com 1.10,2013-11-11 23:05:00,
2013-11-11 17:20:00,17.9,13.0,30.58,NNW,331,5.0,7.0,80,0.00,,,0.00,weatherlink.com 1.10,2013-11-11 23:20:00,
2013-11-11 17:35:00,17.4,12.0,30.59,NW,324,2.0,-999.0,80,-99.99,,,0.00,weatherlink.com 1.10,2013-11-11 23:35:00,
2013-11-11 17:50:00,16.4,12.0,30.60,NNW,332,2.0,5.0,81,0.00,,,0.00,weatherlink.com 1.10,2013-11-11 23:50:00,
2013-11-11 18:05:00,15.9,11.0,30.61,NNW,340,3.0,4.0,81,0.00,,,0.00,weatherlink.com 1.10,2013-11-12 00:05:00,
2013-11-11 18:20:00,15.9,11.0,30.62,NW,317,2.0,4.0,82,0.00,,,0.00,weatherlink.com 1.10,2013-11-12 00:20:00,
2013-11-11 18:35:00,16.5,11.0,30.63,NW,319,3.0,7.0,80,0.00,,,0.00,weatherlink.com 1.10,2013-11-12 00:35:00,
2013-11-11 18:50:00,16.5,11.0,30.63,NW,314,2.0,6.0,80,0.00,,,0.00,weatherlink.com 1.10,2013-11-12 00:50:00,
2013-11-11 19:05:00,16.3,11.0,30.64,NNE,15,2.0,5.0,80,0.00,,,0.00,weatherlink.com 1.10,2013-11-12 01:05:00,
2013-11-11 19:20:00,15.8,11.0,30.65,NW,312,1.0,5.0,80,0.00,,,0.00,weatherlink.com 1.10,2013-11-12 01:20:00,
2013-11-11 19:35:00,16.0,11.0,30.65,NNW,345,1.0,5.0,79,0.00,,,0.00,weatherlink.com 1.10,2013-11-12 01:35:00,
2013-11-11 19:50:00,16.4,11.0,30.66,NE,46,3.0,7.0,78,0.00,,,0.00,weatherlink.com 1.10,2013-11-12 01:50:00,
2013-11-11 20:05:00,16.2,10.0,30.67,WNW,295,2.0,5.0,77,0.00,,,0.00,weatherlink.com 1.10,2013-11-12 02:05:00,
2013-11-11 20:20:00,15.7,10.0,30.67,North,352,4.0,4.0,77,0.00,,,0.00,weatherlink.com 1.10,2013-11-12 02:20:00,
2013-11-11 20:36:00,15.4,10.0,30.68,NNW,340,1.0,4.0,78,0.00,,,0.00,weatherlink.com 1.10,2013-11-12 02:36:00,
2013-11-11 20:51:00,14.8,9.0,30.69,NW,314,0.0,5.0,78,0.00,,,0.00,weatherlink.com 1.10,2013-11-12 02:51:00,
2013-11-11 21:06:00,14.8,9.0,30.70,North,360,3.0,4.0,78,0.00,,,0.00,weatherlink.com 1.10,2013-11-12 03:06:00,
2013-11-11 21:21:00,14.3,8.0,30.71,NW,318,2.0,4.0,77,0.00,,,0.00,weatherlink.com 1.10,2013-11-12 03:21:00,
2013-11-11 21:36:00,13.0,8.0,30.72,NW,326,3.0,4.0,79,0.00,,,0.00,weatherlink.com 1.10,2013-11-12 03:36:00,
2013-11-11 21:51:00,12.3,7.0,30.73,NNW,328,1.0,4.0,80,0.00,,,0.00,weatherlink.com 1.10,2013-11-12 03:51:00,
2013-11-11 22:06:00,11.7,7.0,30.73,NNW,331,3.0,3.0,81,0.00,,,0.00,weatherlink.com 1.10,2013-11-12 04:06:00,
2013-11-11 22:21:00,11.2,7.0,30.74,NNW,339,2.0,5.0,82,0.00,,,0.00,weatherlink.com 1.10,2013-11-12 04:21:00,
2013-11-11 22:36:00,10.8,7.0,30.74,NNW,330,3.0,5.0,83,0.00,,,0.00,weatherlink.com 1.10,2013-11-12 04:36:00,
2013-11-11 22:51:00,10.7,7.0,30.75,NW,320,0.0,5.0,84,0.00,,,0.00,weatherlink.com 1.10,2013-11-12 04:51:00,
2013-11-11 23:06:00,10.3,6.0,30.75,NNW,331,0.0,5.0,84,0.00,,,0.00,weatherlink.com 1.10,2013-11-12 05:06:00,
2013-11-11 23:21:00,10.2,7.0,30.76,North,352,1.0,4.0,85,0.00,,,0.00,weatherlink.com 1.10,2013-11-12 05:21:00,
2013-11-11 23:36:00,10.1,7.0,30.76,NW,325,1.0,3.0,85,0.00,,,0.00,weatherlink.com 1.10,2013-11-12 05:36:00,
2013-11-11 23:51:00,10.6,7.0,30.77,NW,321,0.0,3.0,85,0.00,,,0.00,weatherlink.com 1.10,2013-11-12 05:51:00,